Change the Weather History Date:

Tuesday, June 10, 2014

  Actual Average (KTVC) Record (KTVC)
Temperature  
Mean Temperature 62 °F 62 °F  
Max Temperature 78 °F 74 °F 93 °F (1911)
Min Temperature 45 °F 51 °F 32 °F (1966)
Degree Days  
Heating Degree Days 4 5  
Month to date heating degree days 59  
Since 1 June heating degree days 59  
Since 1 July heating degree days 7495  
Cooling Degree Days 0 2  
Month to date cooling degree days 14  
Year to date cooling degree days 34  
Since 1 June cooling degree days 14  
Growing Degree Days 12 (Base 50)    
Moisture  
Dew Point 48 °F    
Average Humidity 63    
Maximum Humidity 95    
Minimum Humidity 29    
Precipitation  
Precipitation 0.00 in 0.10 in 1.05 in (1996)
Month to date precipitation 0.95  
Year to date precipitation 12.50  
Sea Level Pressure  
Sea Level Pressure 29.98 in    
Wind  
Wind Speed 1 mph (NE)    
Max Wind Speed 8 mph    
Max Gust Speed -    
Visibility 10 miles    
Events      
T = Trace of Precipitation, MM = Missing Value Source: NWS Daily Summary

Daily Weather History Graph

Daily Weather History Graph

Search for Another Location

Airport or City:

Trip Planner

Search our weather history database for the weather conditions in past years. The results will help you decide how hot, cold, wet, or windy it might be!

Date:

Astronomy

Jun. 10, 2014 Rise Set
Actual Time 5:54 AM EDT 9:26 PM EDT
Civil Twilight 5:16 AM EDT 10:03 PM EDT
Nautical Twilight 4:27 AM EDT 10:53 PM EDT
Astronomical Twilight 3:24 AM EDT 11:57 PM EDT
Moon 6:45 PM EDT (6/10) 4:06 AM EDT (6/10)
Length of Visible Light 16h 46m
Length of Day
15h 32m
Waxing Gibbous, 92% of the Moon is Illuminated
Jun 10
Waxing Gibbous
Jun 13
Full
Jun 19
Last Quarter
Jun 27
New
Jul 5
First Quarter

Hourly Weather History & Observations

Time (EDT) Temp. Dew Point Humidity Pressure Visibility Wind Dir Wind Speed Gust Speed Precip Events Conditions
12:12 AM 54.0 °F 51.3 °F 91% 29.99 in 10.0 mi Calm Calm - N/A   Clear
12:34 AM 53.6 °F 50.9 °F 91% 29.99 in 10.0 mi Calm Calm - N/A   Clear
12:54 AM 52.2 °F 50.0 °F 92% 29.99 in 10.0 mi Calm Calm - N/A   Clear
1:12 AM 51.6 °F 49.5 °F 92% 30.00 in 10.0 mi Calm Calm - N/A   Clear
1:32 AM 51.8 °F 50.0 °F 94% 30.00 in 10.0 mi Calm Calm - N/A   Clear
1:52 AM 50.2 °F 48.6 °F 94% 29.99 in 10.0 mi Calm Calm - N/A   Clear
2:13 AM 50.2 °F 48.6 °F 94% 29.99 in 10.0 mi Calm Calm - N/A   Clear
2:29 AM 49.6 °F 48.2 °F 95% 29.99 in 10.0 mi Calm Calm - N/A   Clear
2:55 AM 50.0 °F 48.6 °F 95% 30.00 in 10.0 mi Calm Calm - N/A   Overcast
3:14 AM 50.7 °F 49.1 °F 94% 29.99 in 10.0 mi Calm Calm - N/A   Overcast
3:23 AM 50.0 °F 48.2 °F 94% 29.99 in 10.0 mi Calm Calm - N/A   Mostly Cloudy
4:12 AM 48.2 °F 46.4 °F 93% 29.98 in 10.0 mi Calm Calm - N/A   Clear
4:32 AM 47.3 °F 45.5 °F 93% 29.98 in 10.0 mi Calm Calm - N/A   Clear
4:35 AM 47.5 °F 45.7 °F 93% 29.98 in 10.0 mi Calm Calm - N/A   Clear
5:13 AM 46.6 °F 44.8 °F 93% 29.99 in 10.0 mi Calm Calm - N/A   Clear
5:34 AM 46.2 °F 44.6 °F 94% 29.99 in 10.0 mi Calm Calm - N/A   Clear
5:52 AM 46.6 °F 45.1 °F 95% 30.00 in 10.0 mi Calm Calm - N/A   Clear
6:15 AM 46.2 °F 44.4 °F 93% 30.00 in 10.0 mi Calm Calm - N/A   Clear
6:35 AM 45.9 °F 44.2 °F 94% 30.01 in 10.0 mi Calm Calm - N/A   Clear
6:54 AM 46.6 °F 44.8 °F 93% 30.01 in 10.0 mi Calm Calm - N/A   Clear
7:15 AM 49.5 °F 46.8 °F 90% 30.01 in 10.0 mi Calm Calm - N/A   Clear
7:35 AM 52.0 °F 46.9 °F 83% 30.01 in 10.0 mi Calm Calm - N/A   Clear
7:54 AM 55.2 °F 47.7 °F 76% 30.02 in 10.0 mi Calm Calm - N/A   Clear
8:15 AM 57.0 °F 47.8 °F 71% 30.02 in 10.0 mi Calm Calm - N/A   Clear
8:35 AM 58.5 °F 45.7 °F 62% 30.02 in 10.0 mi Calm Calm - N/A   Clear
8:54 AM 60.3 °F 46.6 °F 61% 30.02 in 10.0 mi Calm Calm - N/A   Clear
9:15 AM 61.7 °F 48.2 °F 61% 30.02 in 10.0 mi Calm Calm - N/A   Clear
9:54 AM 65.3 °F 48.7 °F 55% 30.01 in 10.0 mi Calm Calm - N/A   Clear
10:15 AM 67.8 °F 48.2 °F 49% 30.01 in 10.0 mi NE 3.5 mph - N/A   Clear
10:34 AM 70.2 °F 46.8 °F 43% 30.01 in 10.0 mi ENE 3.5 mph - N/A   Clear
11:15 AM 72.1 °F 45.9 °F 39% 30.00 in 10.0 mi East 3.5 mph - N/A   Clear
11:34 AM 73.4 °F 45.9 °F 37% 30.00 in 10.0 mi NE 8.1 mph - N/A   Clear
11:55 AM 74.3 °F 43.9 °F 34% 30.00 in 10.0 mi East 4.6 mph - N/A   Clear
12:15 PM 75.4 °F 42.8 °F 31% 30.00 in 10.0 mi ENE 5.8 mph - N/A   Clear
12:34 PM 75.6 °F 41.5 °F 29% 29.99 in 10.0 mi NNE 4.6 mph - N/A   Clear
1:15 PM 76.5 °F 43.2 °F 30% 29.99 in 10.0 mi East 3.5 mph - N/A   Scattered Clouds
1:34 PM 77.2 °F 43.5 °F 30% 29.98 in 10.0 mi Calm Calm - N/A   Clear
1:55 PM 78.1 °F 44.1 °F 30% 29.98 in 10.0 mi Calm Calm - N/A   Clear
2:15 PM 77.7 °F 45.1 °F 31% 29.98 in 10.0 mi North 4.6 mph - N/A   Clear
2:34 PM 78.1 °F 45.3 °F 31% 29.97 in 10.0 mi Calm Calm - N/A   Clear
3:15 PM 78.6 °F 46.0 °F 32% 29.96 in 10.0 mi NNE 4.6 mph - N/A   Clear
3:35 PM 78.3 °F 46.6 °F 33% 29.96 in 10.0 mi NE 4.6 mph - N/A   Clear
3:55 PM 78.4 °F 47.1 °F 33% 29.95 in 10.0 mi NE 5.8 mph - N/A   Scattered Clouds
4:15 PM 78.1 °F 48.4 °F 35% 29.95 in 10.0 mi Calm Calm - N/A   Clear
4:35 PM 78.1 °F 48.0 °F 35% 29.95 in 10.0 mi Calm Calm - N/A   Clear
5:15 PM 77.2 °F 52.0 °F 41% 29.95 in 10.0 mi Calm Calm - N/A   Mostly Cloudy
5:35 PM 75.2 °F 52.0 °F 44% 29.96 in 10.0 mi Calm Calm - N/A   Mostly Cloudy
5:55 PM 75.4 °F 53.1 °F 46% 29.95 in 10.0 mi Calm Calm - N/A   Scattered Clouds
6:15 PM 74.8 °F 53.2 °F 47% 29.95 in 10.0 mi North 3.5 mph - N/A   Clear
6:35 PM 73.8 °F 53.6 °F 49% 29.94 in 10.0 mi Calm Calm - N/A   Clear
6:55 PM 73.4 °F 53.1 °F 49% 29.94 in 10.0 mi Calm Calm - N/A   Clear
7:15 PM 73.4 °F 53.8 °F 50% 29.94 in 10.0 mi Calm Calm - N/A   Clear
7:35 PM 72.9 °F 54.3 °F 52% 29.93 in 10.0 mi Calm Calm - N/A   Clear
7:55 PM 72.3 °F 54.7 °F 54% 29.93 in 10.0 mi Calm Calm - N/A   Clear
8:15 PM 71.8 °F 53.8 °F 53% 29.93 in 10.0 mi North 3.5 mph - N/A   Clear
8:35 PM 71.2 °F 51.1 °F 49% 29.93 in 10.0 mi NNE 5.8 mph - N/A   Clear
8:55 PM 70.5 °F 49.8 °F 48% 29.93 in 10.0 mi NE 5.8 mph - N/A   Clear
9:15 PM 70.2 °F 48.6 °F 46% 29.94 in 10.0 mi Calm Calm - N/A   Clear
9:35 PM 66.6 °F 50.7 °F 57% 29.94 in 10.0 mi Calm Calm - N/A   Clear
9:55 PM 65.3 °F 50.7 °F 59% 29.94 in 10.0 mi Calm Calm - N/A   Clear
10:15 PM 63.5 °F 51.1 °F 64% 29.94 in 10.0 mi Calm Calm - N/A   Clear
10:35 PM 63.3 °F 51.1 °F 64% 29.95 in 10.0 mi Calm Calm - N/A   Clear
11:15 PM 63.1 °F 50.7 °F 64% 29.94 in 10.0 mi Calm Calm - N/A   Clear
11:35 PM 62.8 °F 50.4 °F 64% 29.94 in 10.0 mi Calm Calm - N/A   Clear
11:55 PM 61.5 °F 51.4 °F 69% 29.93 in 10.0 mi Calm Calm - N/A   Clear